Content
SEND FEEDBACK

Daily
Averages
Monthly
Summary
United States of America

UPI, GUAM


Home > North America > United States > Guam
Elevation: 16 meters     Latitude: 13 34N     Longitude: 144 55E

WEATHER
 
SELECT A DAY
Number of Records: 208,919;   Date Range: 1/1/95 - 7/23/14
 
SHARE

PRINT THIS DATA

[ ← Previous Day ]
WEATHER ALMANAC - 26 JANUARY, 2014
[ Next Day → ]
[ °F ]   °C
Weather ElementAverageHighLow
Temperature25.9 °C27.2 °C (12:54 pm)24.4 °C (6:54 am)
Dewpoint24.6 °C26 °C (12:03 pm)23.9 °C (1:54 am)
Humidity92 %97 % (6:54 am)88 % (12:54 pm)
Barometer1004.4 hPa1006.4 hPa (9:54 am)1002.7 hPa (2:54 pm)
Wind Speed8.2 km/h14.8 km/h (1:38 pm)
Weather ElementAverage
Visibility15.3 km
Wind DirectionENE (61.9 °)

Weather ElementTotal
Precipitation4.83 mm
Cooling Degree Days7.5 (Base 18.3)
Growing Degree Days15.8 (Base 10)
Averaged from 36 records on 26 January, 2014
WEATHER CONDITIONS BREAKOUT
WIND DIRECTION BREAKOUT
WEATHER BY HOUR - 26 JANUARY, 2014
[ °F ]   °C
Local TimeTemperatureDewpointHumidityBarometerVisibilityWind DirectionWind SpeedGust SpeedPrecipitationEventsConditions
1:54 AM25 °C23.9 °C94 %1004.1 hPa16.1 kmNorth (10°)9.3 km/hClear
2:51 AM25 °C24 °C94 %1004.7 hPa16.1 kmNNE (20°)7.4 km/hMostly Cloudy
2:54 AM25 °C24.4 °C96 %1004.4 hPa16.1 kmNorth (10°)5.6 km/hOvercast
3:52 AM26 °C24 °C89 %1004.4 hPa11.3 kmNorth (10°)7.4 km/h0 mmRainLight Rain
3:54 AM25.6 °C24.4 °C93 %1003.7 hPa12.9 kmNorth (10°)7.4 km/h0 mmRainLight Rain
4:54 AM25.6 °C24.4 °C93 %1003.4 hPa16.1 kmNE (50°)13 km/h0 mmPartly Cloudy
5:54 AM26.1 °C24.4 °C90 %1004.1 hPa12.9 kmESE (110°)13 km/h0 mmRainLight Rain
6:54 AM24.4 °C23.9 °C97 %1005.1 hPa14.5 kmEast (90°)7.4 km/h2.54 mmRainLight Rain
7:54 AM25 °C23.9 °C94 %1005.1 hPa16.1 kmEast (100°)13 km/h0.25 mmMostly Cloudy
8:54 AM25.6 °C23.9 °C90 %1005.8 hPa16.1 kmCalm0 mmMostly Cloudy
9:54 AM26.1 °C24.4 °C90 %1006.4 hPa16.1 kmCalmMostly Cloudy
10:54 AM26.1 °C24.4 °C90 %1005.8 hPa16.1 kmNNE (30°)9.3 km/h0 mmRainLight Rain
11:54 AM26.7 °C25.6 °C94 %1004.4 hPa14.5 kmNNW (340°)9.3 km/h0 mmRainLight Rain
12:03 PM27 °C26 °C94 %1005.1 hPa16.1 kmNorth (360°)13 km/h0 mmRainLight Rain
12:04 PM27 °C26 °C94 %1005.1 hPa16.1 kmNorth (10°)13 km/h0 mmRainLight Rain
12:54 PM27.2 °C25 °C88 %1004.1 hPa16.1 kmNNE (20°)13 km/h0 mmRainLight Rain
1:38 PM27 °C25 °C89 %1004.4 hPa16.1 kmNNE (20°)14.8 km/h0 mmOvercast
1:54 PM26.7 °C25 °C90 %1003.4 hPa16.1 kmNNE (20°)13 km/h0 mmOvercast
2:24 PM27 °C25 °C89 %1003.4 hPa16.1 kmNorth (360°)13 km/hOvercast
2:43 PM27 °C25 °C89 %1003.4 hPa11.3 kmVariable7.4 km/h0 mmRainLight Rain
2:54 PM26.7 °C25 °C90 %1002.7 hPa11.3 kmNNE (30°)5.6 km/h0.25 mmRainLight Rain
3:54 PM26.1 °C25 °C94 %1002.7 hPa16.1 kmNNE (30°)11.1 km/h1.78 mmRainLight Rain
4:25 PM27 °C25 °C89 %1003.7 hPa16.1 kmENE (60°)11.1 km/h0 mmRainLight Rain
4:54 PM25.6 °C24.4 °C93 %1002.7 hPa16.1 kmENE (70°)14.8 km/h0 mmRainLight Rain
5:01 PM26 °C24 °C89 %1003.4 hPa16.1 kmENE (70°)9.3 km/h0 mmOvercast
5:54 PM25.6 °C24.4 °C93 %1003.4 hPa16.1 kmCalm0 mmOvercast
6:03 PM26 °C24 °C89 %1004.4 hPa16.1 kmEast (100°)5.6 km/hOvercast
6:23 PM26 °C24 °C89 %1004.1 hPa12.9 kmNE (50°)11.1 km/h0 mmRain-ThunderstormLight Thunderstorms and Rain
6:39 PM26 °C24 °C89 %1004.4 hPa16.1 kmNE (50°)7.4 km/h0 mmMostly Cloudy
6:54 PM25.6 °C24.4 °C93 %1003.7 hPa16.1 kmCalm0 mmMostly Cloudy
7:41 PM26 °C25 °C94 %1005.1 hPa16.1 kmCalmScattered Clouds
7:54 PM25.6 °C25 °C96 %1004.7 hPa16.1 kmNE (40°)7.4 km/hPartly Cloudy
8:54 PM25.6 °C24.4 °C93 %1004.7 hPa16.1 kmEast (80°)7.4 km/hScattered Clouds
9:54 PM25 °C24.4 °C96 %1004.4 hPa16.1 kmNNE (20°)5.6 km/hScattered Clouds
10:54 PM25 °C24.4 °C96 %1004.4 hPa16.1 kmCalmMostly Cloudy
11:54 PM25.6 °C24.4 °C93 %1004.1 hPa16.1 kmENE (60°)9.3 km/hClear
Hourly data recorded from PGUM, located 0 kilometers away from Upi, Guam







STORIES FROM OUR PARTNERS